Notices

What's New in latest Release from April 7th, 2021:

- Updated Glossary, including Speed of Maximum Gust, and Total Hourly Precipitation

- Updated national and regional climate services offices contacts and prices information

- Addition of station inventory lists for 1981-2010, 1971-2000, and 1961-1990 Normals.

If you haven't already, please take our survey and provide feedback about our website: https://eccc.sondage-survey.ca/f/LanguageSelection.aspx?s=442ca660-fcf1-47c0-95a9-59707d6fd709

Hourly Data Report for January 05, 2021

EDMUNDSTON
NEW BRUNSWICK
Current Station Operator: ECCC - MSC

47°25'00.000" N
68°19'28.040" W
154.20 m
8101303
71590
ERM

Download Data

Hourly Data (January 2021)
Hourly Data Report for January 5, 2021
TIME
LST
Temp Definition
°C
Dew Point Definition
°C
Rel Hum Definition
%
Precip. Amount Definition
mm

Wind Dir Definition
10's deg

Wind Spd Definition
km/h
Visibility Definition
km
Stn Press Definition
kPa
Hmdx Definition


Wind Chill Definition


Weather Definition


00:00 -5.9 LegendMM LegendMM 0.0 8 5   99.99   -8 LegendNANA
01:00 -6.0 LegendMM LegendMM 0.0 8 3   100.00   -7 LegendNANA
02:00 -6.4 LegendMM LegendMM 0.0 9 3   100.01   -8 LegendNANA
03:00 -6.5 LegendMM LegendMM 0.0 3 4   100.04   -8 LegendNANA
04:00 -6.3 LegendMM LegendMM 0.0 34 4   100.05   -8 LegendNANA
05:00 -6.4 LegendMM LegendMM 0.0 28 3   100.05   -8 LegendNANA
06:00 -6.3 LegendMM LegendMM 0.0 29 4   100.05   -8 LegendNANA
07:00 -6.1 LegendMM LegendMM 0.0 30 5   100.07   -9 LegendNANA
08:00 -6.2 LegendMM LegendMM 0.0 29 3   100.08   -8 LegendNANA
09:00 -6.1 LegendMM LegendMM 0.0   0   100.10     LegendNANA
10:00 -5.4 LegendMM LegendMM 0.0 24 4   100.09   -7 LegendNANA
11:00 -4.1 LegendMM LegendMM 0.0 34 6   100.06   -7 LegendNANA
12:00 -3.3 LegendMM LegendMM 0.0 1 4   99.97   -5 LegendNANA
13:00 -2.7 LegendMM LegendMM 0.0 4 8   99.88   -6 LegendNANA
14:00 -2.6 LegendMM LegendMM 0.0 35 11   99.85   -7 LegendNANA
15:00 -2.5 LegendMM LegendMM 0.0 1 8   99.87   -6 LegendNANA
16:00 -2.5 LegendMM LegendMM 0.0 3 8   99.88   -6 LegendNANA
17:00 -2.8 LegendMM LegendMM 0.0 3 7   99.89   -6 LegendNANA
18:00 -3.1 LegendMM LegendMM 0.0 1 6   99.91   -6 LegendNANA
19:00 -3.3 LegendMM LegendMM 0.0 3 5   99.93   -5 LegendNANA
20:00 -3.4 LegendMM LegendMM 0.0 36 9   99.90   -7 LegendNANA
21:00 -3.8 LegendMM LegendMM 0.0 36 5   99.86   -6 LegendNANA
22:00 -4.1 LegendMM LegendMM 0.0   0   99.80     LegendNANA
23:00 -3.9 LegendMM LegendMM 0.0 36 11   99.77   -8 LegendNANA

Notes on Data Quality.

Legend

  • E = Estimated
  • M = Missing
  • NA = Not Available*
  • [empty] = Indicates an unobserved value
Date modified: